Regional Weather Roundup
Issued by NWS Charleston, SC

Current Version | Previous Version | Text Only | Print | Product List | Glossary Off
Versions: 1 2 3 4 5 6 7 8 9 10 11 12 13 14 15 16 17 18 19 20 21 22 23 24 25 26 27 28 29 30 31 32 33 34 35 36 37 38 39 40 41 42 43 44 45 46 47 48 49 50

000
ASUS42 KCHS 201712
RWRCHS

REGIONAL WEATHER ROUNDUP
NATIONAL WEATHER SERVICE CHARLESTON SC
1200 PM EST MON FEB 20 2017

NOTE: "FAIR" INDICATES FEW OR NO CLOUDS BELOW 12,000 FEET WITH NO
SIGNIFICANT WEATHER AND/OR OBSTRUCTIONS TO VISIBILITY.

NOT ALL STATIONS ARE QUALITY CONTROLLED. USE DATA WITH CAUTION...
ESPECIALLY DEWPOINT OBSERVATIONS.

SCZ027-030-031-034>040-042>050-201800-
...SOUTHEAST SOUTH CAROLINA...

CITY           SKY/WX    TMP DP  RH WIND       PRES   REMARKS
N CHARLESTON   MOSUNNY   71  47  42 CALM      30.20R
WATERFRONT PRK   N/A     68  53  58 E8        30.18F
MOUNT PLEASANT FAIR      70  50  49 E3        30.19F
JOHNS ISLAND   FAIR      70  50  49 E7        30.20S
PINOPOLIS        N/A     59  52  77 VRB2      30.11F
MONCKS CORNER  FAIR      68  46  45 N5        30.20F
SUMMERVILLE    FAIR      70  46  43 CALM      30.21S
BEAUFORT MCAS  SUNNY     73  52  47 VRB5      30.19F
BEAUFORT ARPT  FAIR      70  50  49 NE6       30.19F
HILTON HEAD IS MOSUNNY   73  52  46 E8        30.20
WALTERBORO     SUNNY     72  45  37 NE5       30.20F
ALLENDALE      FAIR      70  45  40 VRB3      30.19F

...SOUTHERN MIDLANDS AND PEE DEE...

CITY           SKY/WX    TMP DP  RH WIND       PRES   REMARKS
GEORGETOWN     FAIR      68  43  40 E6        30.21S
KINGSTREE      FAIR      68  45  42 SE3       30.20F
ORANGEBURG     SUNNY     69  44  40 NE5       30.20F
BARNWELL       FAIR      72  46  40 VRB3      30.20F
AIKEN          FAIR      68  43  40 E8        30.23F
MANNING        FAIR      68  43  40 MISG      30.21S
COLUMBIA       MOSUNNY   70  40  33 NE8       30.20F
SUMTER         SUNNY     69  43  39 N5        30.19F
FLORENCE       SUNNY     68  45  43 VRB3      30.20F
MYRTLE BEACH   SUNNY     66  45  45 NE9       30.20F
N MYRTLE BEACH SUNNY     65  47  52 SE7       30.18F

$$

GAZ063-065-086>088-099>101-113>116-118-119-134>141-150-201800-
...SOUTHEAST GEORGIA...

CITY           SKY/WX    TMP DP  RH WIND       PRES   REMARKS
SAVANNAH ARPT  PTSUNNY   76  45  33 E9        30.18F
HUNTER AAF     SUNNY     75  53  46 E3        30.16F
FORT STEWART   MOSUNNY   73  49  41 E3        30.17S
STATESBORO     MOSUNNY   73  52  48 CALM      30.20S
SYLVANIA       CLOUDY   N/A N/A N/A E5        30.20F
CLAXTON        FAIR      73  52  47 NE6       30.19F

...CSRA...CENTRAL AND FAR SOUTHEAST GEORGIA...

CITY           SKY/WX    TMP DP  RH WIND       PRES   REMARKS
THOMSON        MOSUNNY   69  49  48 E5        30.25F
AUGUSTA-BUSH   SUNNY     73  42  32 E6        30.20F
AUGUSTA-DANIEL SUNNY     70  40  33 VRB3      30.21F
SWAINSBORO     FAIR      72  46  40 SE3       30.20F
VIDALIA        MOSUNNY   73  54  49 SE3       30.20F
EASTMAN        FAIR      74  36  24 SE7       30.21F
HAZLEHURST     FAIR      73  55  52 SE6       30.18F
ALMA           MOSUNNY   74  52  46 SE7       30.18F
WAYCROSS       SUNNY     76  56  50 CALM      30.18S
JESUP          FAIR      73  46  38 SE6       30.19F
BAXLEY         FAIR      73  55  53 SE7       30.18F
BRUNSWICK      MOSUNNY   73  55  53 E9        30.20S
SAINT SIMONS   MOSUNNY   71  50  47 E10       30.20R

$$

SCZ027-028-034-036>038-045-046-048>050-GAZ119-141-201800-
...LAKE AND SUPPLEMENTAL COASTAL OBSERVATIONS...

STATION/POSITION TIME  TEMP    WIND        PRES    WAVE   SWELL
                       AIR SEA DIR/SP/G            HT/PER HT/PER/DIR
                 (UTC) (F)     (DEG/KT/KT) (MB)    (FT/S) (FT/S/D)
WINYAH BAY       NOT AVBL
LAKE MURRAY      1620   63      40/  2/  4 1022.7
ACE BASIN NERRS  NOT AVBL
FORT PULASKI     1642   61 60   90/  9/ 11 1022.7F
SAPELO ISLAND    1600   71      80/  8     1022.0

$$

ANZ835-935-AMZ111-154-330-350-352-354-370-450-454-472-201800-
...C-MAN AND BUOY OBSERVATIONS...

STATION/POSITION TIME  TEMP    WIND        PRES    WAVE   SWELL
                       AIR SEA DIR/SP/G            HT/PER HT/PER/DIR
                 (UTC) (F)     (DEG/KT/KT) (MB)    (FT/S) (FT/S/D)
BUOY 41004       1650   65 69   40/ 10/ 12 1021.5F   2/ 4
BUOY 41008       1550   63 62   40/  6/  8 1022.0    1
FOLLY BEACH CMAN 1600   61      50/ 10/ 12 1023.2S
CAPERS NEARSHORE 1608   59 59   50/ 10/ 14 1022.5S
FRIPP NEARSHORE  1608   60 60   50/  8/ 12 1022.6R


STATION/POSITION TIME  TEMP    WIND        PRES    WAVE   SWELL
                       AIR SEA DIR/SP/G            HT/PER HT/PER/DIR
                 (UTC) (F)     (DEG/KT/KT) (MB)    (FT/S) (FT/S/D)
5E ST. MARYS GA  1630      65                N/A     1
FRYING PAN BUOY  1650   61 65   30/ 12/ 14 1021.8F   2/ 3
BUOY 41025       1650   57 63   10/ 17/ 21 1021.6F   3/ 6   2/ 80/ 9
CAPE LOOKOUT NC  1600   58      40/ 17/ 20 1022.1F
BUOY 41002       1650   70 71   20/ 16/ 17 1019.6S   6/ 6   2/260/11
BUOY 41010       NOT AVBL
ST AUGUSTINE FL  1700   66 67   30/  6/  6 1022.7R


$$




USA.gov is the U.S. government's official web portal to all federal, state and local government web resources and services.